Weather in Staritsa

Russia / Astrakhan Oblast     48°13′09″N   45°56′37″E
temp.,
°C
wind,
m/s
gust,
m/s
humid.,
%
clouds,
%
prec.,
mm/h
press.,
hPa
HPBL,
m
25 july, sun
sun2501:00+23ne36430 0.0 101388
04:00+21ne33480 0.0 101427
07:00+23ene24491 0.0 1016138
10:00+28ene33340 0.0 10161012
13:00+31ene32273 0.0 10172863
16:00+32ne332317 0.0 10163050
19:00+31ene4426100 0.0 1016818
22:00+27ne6113354 0.0 1018402
26 july, mon
mon2601:00+24ene49394 0.0 1019175
04:00+23ene47413 0.0 1019140
07:00+24ne374069 0.0 1020259
10:00+29e66285 0.0 1021917
13:00+31ene64253 0.0 10202106
16:00+32ene532439 0.0 10192777
19:00+31ene542667 0.0 10191680
22:00+27ene6102987 0.0 1020392
27 july, tue
tue2701:00+26ene4930100 0.0 1020293
04:00+24ene2331100 0.0 102065
07:00+24ene243441 0.0 1020165
10:00+27e112489 0.0 10201148
13:00+30n232296 0.0 10192800
16:00+31nne6621100 0.0 10173141
19:00+30nne562211 0.0 10173101
22:00+24n47300 0.0 1018128
28 july, wed
wed2801:00+23nne48332 0.0 1018151
04:00+21nne34390 0.0 101860
07:00+22nne35391 0.0 1018157
10:00+28nne44280 0.0 10181995
13:00+30nne43240 0.0 10172885
16:00+31nne44220 0.0 10163052
19:00+30nne13223 0.0 10153002
22:00+26wsw222942 0.0 101514
29 july, thu
thu2901:00+25w343032 0.0 101548
04:00+23w223515 0.0 101414
07:00+24w353417 0.0 1015145
10:00+31w4523100 0.0 10141452
13:00+33sw431979 0.0 10133248
16:00+34sw441772 0.0 10123350
19:00+33sw4418100 0.0 10113134
22:00+29ssw462316 0.0 1011117